Weather in Kulykivka

Ukraine / Chernihiv Region     51˚43′28″N   31˚27′59″E
temp.,
°C
wind,
m/s
gust,
m/s
humid.,
%
clouds,
%
prec.,
mm/h
press.,
hPa
HPBL,
m
2 december, wed
wed223:00ene4786100 0.0 1030470
02:00−1˚ene3694100 0.3 1030426
05:00−2˚e4792100 0.2 1029418
08:00−2˚e4790100 0.3 1029457
11:00−1˚ese4686100 0.1 1029522
14:00−1˚ese4687100 0.4 1028507
17:00−2˚ese468898 0.1 1028486
20:00−2˚se368596 0.1 1028488
3 december, thu
thu323:00−2˚ese369199 0.1 1028385
02:00−2˚ese369496 0.3 1028321
05:00−2˚ese469591 0.3 1027329
08:00−2˚ese479392 0.4 1027342
11:00−1˚se468882 0.1 1027426
14:00se468990 0.1 1026411
17:00ese4793100 0.1 1026314
20:00se4895100 0.1 1026408
4 december, fri
fri423:00ese479796 0.1 1026309
02:00+2˚se499798 0.3 1025356
05:00+1˚se5119799 0.0 1024428
08:00+1˚se6129799 0.0 1025461
11:00+2˚se61292100 0.0 1025534
14:00+2˚se61291100 0.0 1025497
17:00+1˚se61295100 0.0 1025530
20:00+1˚se61192100 0.0 1026584
5 december, sat
sat523:00+1˚se61094100 0.0 1027553
02:00+2˚se61192100 0.0 1027627
05:00+1˚se51092100 0.0 1027531
08:00+1˚se61191100 0.0 1027475
11:00+2˚se61088100 0.0 1028558
14:00+2˚se61087100 0.0 1028518
17:00se6108898 0.0 1029545
20:00se6109099 0.0 1030554
6 december, sun
sun623:00se61089100 0.0 1031610
02:00−2˚ese6986100 0.0 1031419
05:00−4˚ese5108380 0.0 1031404
08:00−4˚ese5107540 0.0 1031419
11:00−2˚ese611560 0.0 1031458
14:00−2˚ese611530 0.0 1031478
17:00−4˚ese612590 0.0 1030445
20:00−4˚ese613570 0.0 1031461